Regional Weather Roundup
Issued by NWS

Home | Current Version | Previous Version | Text Only | Print | Product List | Glossary On
Versions: 1 2 3 4 5 6 7 8 9 10 11 12 13 14 15 16 17 18 19 20 21 22 23 24 25 26 27 28 29 30 31 32 33 34 35 36 37 38 39 40 41 42 43 44 45 46 47 48 49 50
000
ASUS43 KBIS 280002
RWRND

NORTH DAKOTA REGIONAL WEATHER ROUNDUP
NATIONAL WEATHER SERVICE BISMARCK ND
700 PM CDT FRI MAY 27 2016

NOTE: "FAIR" INDICATES FEW OR NO CLOUDS BELOW 12,000 FEET WITH NO
SIGNIFICANT WEATHER AND/OR OBSTRUCTIONS TO VISIBILITY.


NDZ001>003-009>011-017-280100-
NORTHWEST NORTH DAKOTA

CITY           SKY/WX    TMP DP  RH WIND       PRES   REMARKS
WILLISTON      PTSUNNY   66  51  58 NE13      29.83S
6HR MIN TEMP:  65; 6HR MAX TEMP:  68;

MINOT          SUNNY     72  49  44 VRB5      29.80S
MINOT AFB      CLOUDY    63  55  75 NE15      29.80R
$$

NDZ018>021-031>035-040>046-280100-
SOUTHWEST NORTH DAKOTA

CITY           SKY/WX    TMP DP  RH WIND       PRES   REMARKS
BISMARCK       MOSUNNY   69  47  45 CALM      29.78F
6HR MIN TEMP:  67; 6HR MAX TEMP:  72;

DICKINSON      CLOUDY    65  43  44 E8        29.79S
GARRISON         N/A     67  50  54 CALM      29.80S
6HR MIN TEMP:  61; 6HR MAX TEMP:  68;

HETTINGER ARPT CLOUDY    65  48  54 CALM      29.82F
$$

NDZ004>008-012>016-024-026-027-054-280100-
NORTHEAST NORTH DAKOTA

CITY           SKY/WX    TMP DP  RH WIND       PRES   REMARKS
GRAND FORKS    MOSUNNY   74  54  49 N9        29.75S
GRND FRKS AFB  MOSUNNY   72  52  48 E6        29.77S
DEVILS LAKE    MOSUNNY   70  47  43 CALM      29.80S
$$

NDZ022-023-025-028>030-036>039-047>053-280100-
SOUTHEAST NORTH DAKOTA

CITY           SKY/WX    TMP DP  RH WIND       PRES   REMARKS
FARGO          CLOUDY    63  60  90 W6        29.75F
6HR MIN TEMP:  60; 6HR MAX TEMP:  77; 6HR PCP:  0.31;

JAMESTOWN      CLOUDY    70  48  45 N6        29.77S
$$





USA.gov is the U.S. government's official web portal to all federal, state and local government web resources and services.